Location: Township of Marena
(38.1747°N, 99.6798°W)
Time: 03:16:15
(UTC+00:00)

USA 215 - Pass Details

Date: 26 October 2020
Orbit: 1102 x 1106 km, 123.0° (Epoch: 23 November)

Event Time Altitude Azimuth Distance (km) Brightness Sun altitude
Exits shadow 02:29:48 34° 7° (N) 1,727 4.2 -32.6°
Drops below altitude 10° 02:34:25 10° 327° (NNW) 2,964 6.0 -33.5°
Sets 02:37:05 0° 319° (NW) 3,924 6.8 -34.0°
